EW0704 Bethany CT US current weather conditions

sailwx.info

Wind from 124

Air temperature 21.7° C
Dewpoint 19.9° C

Last reported at 2020-Aug-13 08:07 UTC.
Time now 2020-Aug-13 08:51 UTC

Location: N 41°24' W 073°02'.
View on Google Maps.

See reports from other nearby stations

  
Tides and Currents Weather Stations Pressure Air Temp Water Temp Dewpoint Dewpoint Depression Visibility Wind Speed Wind Dir Waves Ship Positions
date/time (UTC)wind fromknots sea level pressurealtimeterstation pressurevisibilityair tempwater tempwave heightnotes
2020-Aug-13 08:07 124 21.7
2020-Aug-13 07:56 124 22.2
2020-Aug-13 07:46 124 22.2
2020-Aug-13 07:36 124 22.2
2020-Aug-13 07:26 124 22.8
2020-Aug-13 06:54 124 22.8
2020-Aug-13 06:44 124 23.3
2020-Aug-13 06:34 124 23.3
2020-Aug-13 06:24 124 23.3
2020-Aug-13 06:14 124 23.3
2020-Aug-13 06:05 124 23.3
2020-Aug-13 05:54 124 23.3
2020-Aug-13 05:44 124 23.3
2020-Aug-13 05:34 124 23.3
2020-Aug-13 05:24 124 23.3
2020-Aug-13 05:14 124 23.3
2020-Aug-13 05:04 124 23.3
2020-Aug-13 04:54 124 23.3
2020-Aug-13 04:44 124 23.3
2020-Aug-13 04:34 124 23.3
2020-Aug-13 04:24 124 23.3
2020-Aug-13 04:14 124 23.9
2020-Aug-13 04:03 124 23.9
2020-Aug-13 03:53 124 23.9
2020-Aug-13 03:43 124 23.9
2020-Aug-13 03:33 124 23.9
2020-Aug-13 03:23 124 24.4
2020-Aug-13 03:12 124 24.4
2020-Aug-13 03:03 123 24.4
2020-Aug-13 02:53 123 25.0
2020-Aug-13 02:43 123 25.0
2020-Aug-13 02:32 123 25.0
2020-Aug-13 02:22 123 25.0
2020-Aug-13 02:12 123 25.6
2020-Aug-13 02:02 123 25.6
2020-Aug-13 01:52 123 25.6
2020-Aug-13 01:42 123 25.6
2020-Aug-13 01:31 123 25.6
2020-Aug-13 01:21 123 25.6
2020-Aug-13 01:11 123 25.6
2020-Aug-13 01:01 123 25.6
2020-Aug-13 00:51 123 25.6
2020-Aug-13 00:41 123 25.6
2020-Aug-13 00:31 123 26.1
2020-Aug-13 00:21 123 26.1
2020-Aug-13 00:10 123 26.1
2020-Aug-13 00:00 123 26.7
2020-Aug-12 23:50 123 26.7
2020-Aug-12 23:41 123 27.2
2020-Aug-12 23:30 123 27.2
2020-Aug-12 23:20 123 27.8
2020-Aug-12 23:10 123 28.3
2020-Aug-12 23:00 076 28.9
2020-Aug-12 22:51 224 4 gusting 0 28.9
2020-Aug-12 22:40 200 29.4
2020-Aug-12 22:30 078 29.4
2020-Aug-12 22:20 184 4 30.0
2020-Aug-12 22:10 197 30.0
2020-Aug-12 22:00 128 4 gusting 3 30.6
2020-Aug-12 21:51 146 4 gusting 1 30.6
2020-Aug-12 21:40 178 4 gusting 2 31.1
2020-Aug-12 21:30 204 4 gusting 3 31.1
2020-Aug-12 21:20 188 31.7
2020-Aug-12 21:10 229 31.1
2020-Aug-12 21:00 229 31.7
2020-Aug-12 20:50 246 32.8
2020-Aug-12 20:40 241 32.8
2020-Aug-12 20:31 230 33.3
2020-Aug-12 20:20 327 32.2
2020-Aug-12 20:11 161 32.8
2020-Aug-12 20:01 225 4 gusting 3 33.3
2020-Aug-12 19:51 244 4 gusting 3 33.3
2020-Aug-12 19:40 041 32.8
2020-Aug-12 19:30 234 4 gusting 1 33.9
2020-Aug-12 19:21 186 4 gusting 2 33.9
2020-Aug-12 19:11 278 4 gusting 5 33.9
2020-Aug-12 19:01 168 9 gusting 5 33.3
2020-Aug-12 18:51 257 4 gusting 3 32.2
2020-Aug-12 18:41 256 4 gusting 6 33.3
2020-Aug-12 18:31 164 9 gusting 6 33.3
2020-Aug-12 18:21 141 4 gusting 5 33.9
2020-Aug-12 18:11 269 4 gusting 3 32.8
2020-Aug-12 18:00 232 4 gusting 3 33.9
2020-Aug-12 17:50 025 9 gusting 4 34.4
2020-Aug-12 17:40 167 4 gusting 4 33.3
2020-Aug-12 17:30 270 9 gusting 4 32.8
2020-Aug-12 17:20 159 9 gusting 4 32.8
2020-Aug-12 17:10 201 4 gusting 3 33.3
2020-Aug-12 17:00 182 4 32.8
2020-Aug-12 16:50 270 4 gusting 3 32.2
2020-Aug-12 16:40 229 4 gusting 2 31.7
2020-Aug-12 16:30 345 4 gusting 2 32.2
2020-Aug-12 16:20 310 32.2
2020-Aug-12 16:10 180 4 gusting 2 31.1
2020-Aug-12 15:59 271 31.7
2020-Aug-12 15:49 046 4 gusting 2 31.7
2020-Aug-12 15:39 261 4 gusting 1 31.1
2020-Aug-12 15:29 155 30.6
2020-Aug-12 15:19 075 4 gusting 1 31.1
2020-Aug-12 15:08 105 31.1
2020-Aug-12 14:58 346 4 gusting 1 30.0
2020-Aug-12 14:48 229 4 gusting 0 28.9
2020-Aug-12 14:39 249 4 gusting 3 28.9
2020-Aug-12 14:29 296 28.3
2020-Aug-12 14:19 285 26.7
2020-Aug-12 14:09 201 4 gusting 1 27.8
2020-Aug-12 13:58 296 28.3
2020-Aug-12 13:48 153 28.3
2020-Aug-12 13:38 149 27.8
2020-Aug-12 13:27 149 27.2
2020-Aug-12 13:17 199 27.2
2020-Aug-12 13:07 200 26.7
2020-Aug-12 12:57 325 26.1
2020-Aug-12 12:47 202 26.1
2020-Aug-12 12:37 269 25.6
2020-Aug-12 12:27 269 25.0
2020-Aug-12 12:17 273 24.4
2020-Aug-12 12:08 273 23.9
2020-Aug-12 11:58 170 23.9
2020-Aug-12 11:47 171 23.9
2020-Aug-12 11:37 171 23.3
2020-Aug-12 11:27 200 23.3
2020-Aug-12 11:17 215 23.3
2020-Aug-12 11:07 172 23.3
2020-Aug-12 10:57 021 23.3
2020-Aug-12 10:48 102 23.3
2020-Aug-12 10:37 142 23.3
2020-Aug-12 10:27 142 23.3
2020-Aug-12 10:17 202 23.3
2020-Aug-12 10:06 202 23.3
2020-Aug-12 09:57 202 23.3
2020-Aug-12 09:46 202 23.3
2020-Aug-12 09:37 202 23.9
2020-Aug-12 09:27 202 23.9
2020-Aug-12 09:17 202 23.9
2020-Aug-12 09:07 202 23.9
2020-Aug-12 08:57 202 23.9
2020-Aug-12 08:47 202 23.9
2020-Aug-12 08:37 202 24.4
2020-Aug-12 08:27 202 24.4
2020-Aug-12 08:17 202 24.4
2020-Aug-12 08:07 202 24.4
2020-Aug-12 07:58 202 25.0
2020-Aug-12 07:48 202 25.0
2020-Aug-12 07:38 168 25.0
2020-Aug-12 07:27 168 25.0
2020-Aug-12 07:18 168 25.0
2020-Aug-12 07:07 168 25.0
2020-Aug-12 06:57 168 25.0
2020-Aug-12 06:47 168 25.0
2020-Aug-12 06:37 168 25.0
2020-Aug-12 06:27 168 25.0
2020-Aug-12 06:17 168 25.0
2020-Aug-12 06:07 194 4 gusting 1 25.0
2020-Aug-12 05:57 193 25.0
2020-Aug-12 05:46 194 25.0
2020-Aug-12 05:36 194 25.6
2020-Aug-12 05:25 194 25.6
2020-Aug-12 05:15 194 25.6
2020-Aug-12 05:05 180 25.6
2020-Aug-12 04:55 180 25.6
2020-Aug-12 04:45 180 25.6
2020-Aug-12 04:35 180 25.6
2020-Aug-12 04:25 174 25.6
2020-Aug-12 04:14 157 25.6
2020-Aug-12 04:05 179 25.6
2020-Aug-12 03:54 214 25.6
2020-Aug-12 03:44 219 4 25.6
2020-Aug-12 03:34 228 25.0
2020-Aug-12 03:24 226 25.6
2020-Aug-12 03:14 187 25.0
2020-Aug-12 03:04 161 25.0
2020-Aug-12 02:54 198 4 25.0
2020-Aug-12 02:44 179 4 gusting 4 25.0
2020-Aug-12 02:34 182 25.0
2020-Aug-12 02:24 170 25.0
2020-Aug-12 02:14 184 25.0
2020-Aug-12 02:04 156 25.0
2020-Aug-12 01:54 169 25.0
2020-Aug-12 01:44 168 25.0
2020-Aug-12 01:34 179 25.0
2020-Aug-12 01:24 036 25.0
2020-Aug-12 01:14 250 25.0
2020-Aug-12 01:04 045 25.6
2020-Aug-12 00:54 231 25.6
2020-Aug-12 00:44 231 25.6
2020-Aug-12 00:33 185 25.6
2020-Aug-12 00:23 221 26.1
2020-Aug-12 00:13 159 26.1
2020-Aug-12 00:03 186 4 26.1
2020-Aug-11 23:53 226 4 gusting 2 26.7
2020-Aug-11 23:43 185 26.7
2020-Aug-11 23:33 150 4 gusting 6 26.7
2020-Aug-11 23:23 099 4 gusting 6 27.2
2020-Aug-11 23:13 175 4 gusting 3 27.2
2020-Aug-11 23:03 167 4 gusting 5 27.2
2020-Aug-11 22:53 167 9 gusting 6 27.8
2020-Aug-11 22:43 188 4 gusting 6 27.8
2020-Aug-11 22:33 208 4 gusting 4 27.8
2020-Aug-11 22:23 152 9 gusting 6 27.8
2020-Aug-11 22:13 252 4 gusting 4 27.8
2020-Aug-11 22:03 220 4 gusting 4 28.3
2020-Aug-11 21:53 165 9 gusting 6 28.3
2020-Aug-11 21:43 354 9 gusting 7 28.3
2020-Aug-11 21:32 209 4 gusting 7 28.3
2020-Aug-11 21:22 146 9 gusting 7 28.9
2020-Aug-11 21:12 238 9 gusting 8 28.9
2020-Aug-11 21:02 171 15 gusting 8 30.0
2020-Aug-11 20:52 100 9 gusting 5 30.0
2020-Aug-11 20:41 208 9 gusting 8 30.6
2020-Aug-11 20:31 100 15 gusting 8 31.1
2020-Aug-11 20:21 107 9 gusting 8 31.7
2020-Aug-11 20:11 142 15 gusting 8 31.1
2020-Aug-11 20:01 160 9 gusting 7 31.7
2020-Aug-11 19:50 112 15 gusting 7 31.7
2020-Aug-11 19:40 179 9 gusting 6 32.2
2020-Aug-11 19:29 283 9 gusting 5 32.2
2020-Aug-11 19:19 201 9 gusting 6 32.2
2020-Aug-11 19:09 107 9 gusting 7 33.3
2020-Aug-11 19:00 142 9 gusting 8 33.3
2020-Aug-11 18:49 093 15 gusting 8 32.8
2020-Aug-11 18:39 196 15 gusting 7 32.8
2020-Aug-11 18:29 154 9 gusting 6 31.1
2020-Aug-11 18:19 157 9 gusting 9 31.7
2020-Aug-11 18:09 119 9 gusting 9 31.7
2020-Aug-11 17:59 218 15 gusting 6 32.2
2020-Aug-11 17:48 127 9 gusting 6 32.2
2020-Aug-11 17:38 179 9 gusting 6 31.7
2020-Aug-11 17:28 236 9 gusting 6 31.7
2020-Aug-11 17:18 213 15 gusting 6 31.7
2020-Aug-11 17:08 229 15 gusting 8 31.7
2020-Aug-11 16:58 182 9 gusting 8 32.2
2020-Aug-11 16:47 247 9 gusting 6 32.2
2020-Aug-11 16:37 207 9 gusting 4 32.2
2020-Aug-11 16:27 147 9 gusting 6 31.7
2020-Aug-11 16:17 103 9 gusting 6 31.7
2020-Aug-11 16:07 127 9 gusting 6 31.7
2020-Aug-11 15:56 162 9 gusting 6 32.2
2020-Aug-11 15:47 150 9 gusting 5 32.2
2020-Aug-11 15:36 167 9 gusting 5 31.7
2020-Aug-11 15:26 166 4 gusting 2 31.1
2020-Aug-11 15:17 188 4 gusting 5 31.1
2020-Aug-11 15:07 134 4 gusting 3 31.1
2020-Aug-11 14:56 204 4 gusting 4 31.7
2020-Aug-11 14:46 145 4 gusting 3 32.2
2020-Aug-11 14:36 178 9 gusting 6 32.2
2020-Aug-11 14:26 194 4 gusting 3 31.7
2020-Aug-11 14:16 127 4 gusting 3 31.1
2020-Aug-11 14:06 157 9 gusting 3 30.6
2020-Aug-11 13:57 268 30.0
2020-Aug-11 13:47 258 4 gusting 0 29.4
2020-Aug-11 13:37 177 28.9
2020-Aug-11 13:27 167 28.3
2020-Aug-11 13:17 166 27.2
2020-Aug-11 13:07 166 4 gusting 2 27.2
2020-Aug-11 12:56 175 26.1
2020-Aug-11 12:46 173 25.6
2020-Aug-11 12:35 173 25.6
2020-Aug-11 12:26 173 25.0
2020-Aug-11 12:15 179 24.4
2020-Aug-11 12:06 181 23.9
2020-Aug-11 11:56 029 23.3
2020-Aug-11 11:46 069 22.8
2020-Aug-11 11:35 069 22.2
2020-Aug-11 11:25 335 22.2
2020-Aug-11 11:15 288 22.2
2020-Aug-11 11:04 117 22.2
2020-Aug-11 10:55 117 22.2
2020-Aug-11 10:44 184 22.2
2020-Aug-11 10:35 188 22.2
2020-Aug-11 10:25 188 22.2
2020-Aug-11 10:14 188 22.2
2020-Aug-11 10:04 188 22.2
2020-Aug-11 09:54 188 22.2
2020-Aug-11 09:43 188 22.2
2020-Aug-11 09:34 187 22.2
2020-Aug-11 09:23 187 22.2
2020-Aug-11 09:14 187 22.2
2020-Aug-11 09:04 187 22.2
2020-Aug-11 08:54 187 22.2
2020-Aug-11 08:44 187 22.2
2020-Aug-11 08:33 187 22.2
2020-Aug-11 08:23 187 22.8
2020-Aug-11 08:13 190 22.8
2020-Aug-11 08:04 190 22.8